| time (UTC) | temp F | wind direction | speed MPH | gust MPH | rain 1hr in | rain 24hr in | rain mn in | humidity % | barometer mb |
| 20260503225113 | 67 | 232 | 18.0 | 24.0 | 0.00 | 0.00 | 0.00 | 46 | 1003.6 |
| 20260503224611 | 66 | 226 | 17.0 | 25.0 | 0.00 | 0.00 | 0.00 | 47 | 1003.6 |
| 20260503224109 | 66 | 230 | 16.0 | 25.0 | 0.00 | 0.00 | 0.00 | 47 | 1003.7 |
| 20260503223607 | 67 | 223 | 11.0 | 20.0 | 0.00 | 0.00 | 0.00 | 48 | 1004.0 |
| 20260503223102 | 67 | 233 | 21.0 | 21.0 | 0.00 | 0.00 | 0.00 | 46 | 1003.8 |
| 20260503222600 | 68 | 232 | 20.0 | 20.0 | 0.00 | 0.00 | 0.00 | 47 | 1003.8 |
| 20260503222058 | 67 | 239 | 14.0 | 23.0 | 0.00 | 0.00 | 0.00 | 46 | 1003.7 |
| 20260503221556 | 67 | 229 | 24.0 | 26.0 | 0.00 | 0.00 | 0.00 | 46 | 1003.9 |
| 20260503221053 | 67 | 245 | 14.0 | 27.0 | 0.00 | 0.00 | 0.00 | 47 | 1003.8 |
| 20260503220549 | 67 | 233 | 16.0 | 21.0 | 0.00 | 0.00 | 0.00 | 48 | 1003.9 |
| 20260503220046 | 67 | 235 | 15.0 | 24.0 | 0.00 | 0.00 | 0.00 | 47 | 1004.0 |
| 20260503215543 | 68 | 226 | 16.0 | 20.0 | 0.00 | 0.00 | 0.00 | 47 | 1003.9 |
| 20260503215040 | 67 | 227 | 15.0 | 20.0 | 0.00 | 0.00 | 0.00 | 48 | 1004.0 |
| 20260503214539 | 68 | 232 | 18.0 | 21.0 | 0.00 | 0.00 | 0.00 | 48 | 1004.3 |
| 20260503214035 | 67 | 232 | 20.0 | 25.0 | 0.00 | 0.00 | 0.00 | 47 | 1004.1 |
| 20260503213533 | 67 | 247 | 20.0 | 22.0 | 0.00 | 0.00 | 0.00 | 48 | 1004.3 |
| 20260503213030 | 67 | 250 | 14.0 | 24.0 | 0.00 | 0.00 | 0.00 | 48 | 1004.2 |
| 20260503212527 | 67 | 234 | 18.0 | 25.0 | 0.00 | 0.00 | 0.00 | 48 | 1004.3 |
| 20260503212024 | 67 | 248 | 13.0 | 25.0 | 0.00 | 0.00 | 0.00 | 48 | 1004.3 |
| 20260503211521 | 67 | 223 | 14.0 | 25.0 | 0.00 | 0.00 | 0.00 | 47 | 1004.3 |
| 20260503211017 | 66 | 240 | 20.0 | 28.0 | 0.00 | 0.00 | 0.00 | 48 | 1004.3 |
| 20260503210514 | 67 | 240 | 20.0 | 24.0 | 0.00 | 0.00 | 0.00 | 49 | 1004.3 |
| 20260503210009 | 66 | 244 | 17.0 | 24.0 | 0.00 | 0.00 | 0.00 | 47 | 1004.4 |
| 20260503205506 | 66 | 233 | 14.0 | 28.0 | 0.00 | 0.00 | 0.00 | 49 | 1004.3 |
| 20260503205003 | 66 | 231 | 21.0 | 26.0 | 0.00 | 0.00 | 0.00 | 47 | 1004.8 |
| 20260503204500 | 66 | 237 | 20.0 | 24.0 | 0.00 | 0.00 | 0.00 | 48 | 1004.7 |
| 20260503203956 | 66 | 240 | 20.0 | 26.0 | 0.00 | 0.00 | 0.00 | 49 | 1004.8 |
| 20260503203454 | 66 | 236 | 22.0 | 24.0 | 0.00 | 0.00 | 0.00 | 48 | 1004.8 |
| 20260503202950 | 66 | 247 | 18.0 | 26.0 | 0.00 | 0.00 | 0.00 | 48 | 1004.9 |
| 20260503202449 | 65 | 243 | 16.0 | 24.0 | 0.00 | 0.00 | 0.00 | 49 | 1005.2 |
| 20260503201947 | 65 | 222 | 14.0 | 28.0 | 0.00 | 0.00 | 0.00 | 48 | 1004.9 |
| 20260503201444 | 65 | 226 | 14.0 | 25.0 | 0.00 | 0.00 | 0.00 | 49 | 1005.0 |
| 20260503200941 | 65 | 234 | 15.0 | 24.0 | 0.00 | 0.00 | 0.00 | 50 | 1005.1 |
| 20260503200438 | 65 | 238 | 22.0 | 27.0 | 0.00 | 0.00 | 0.00 | 49 | 1005.4 |
| 20260503195934 | 66 | 223 | 16.0 | 22.0 | 0.00 | 0.00 | 0.00 | 48 | 1005.2 |
| 20260503195432 | 65 | 224 | 14.0 | 29.0 | 0.00 | 0.00 | 0.00 | 48 | 1005.6 |
| 20260503194928 | 65 | 251 | 16.0 | 24.0 | 0.00 | 0.00 | 0.00 | 47 | 1005.5 |
| 20260503194425 | 64 | 233 | 21.0 | 29.0 | 0.00 | 0.00 | 0.00 | 48 | 1005.5 |
| 20260503193920 | 64 | 224 | 25.0 | 28.0 | 0.00 | 0.00 | 0.00 | 49 | 1005.4 |
| 20260503193416 | 65 | 243 | 16.0 | 24.0 | 0.00 | 0.00 | 0.00 | 50 | 1005.6 |
| 20260503192912 | 65 | 232 | 23.0 | 30.0 | 0.00 | 0.00 | 0.00 | 49 | 1005.7 |
| 20260503192408 | 64 | 237 | 15.0 | 26.0 | 0.00 | 0.00 | 0.00 | 49 | 1006.1 |
| 20260503191904 | 64 | 231 | 23.0 | 28.0 | 0.00 | 0.00 | 0.00 | 51 | 1006.1 |
| 20260503191402 | 64 | 235 | 17.0 | 26.0 | 0.00 | 0.00 | 0.00 | 51 | 1006.0 |
| 20260503190858 | 65 | 224 | 14.0 | 27.0 | 0.00 | 0.00 | 0.00 | 52 | 1006.0 |
| 20260503190355 | 64 | 245 | 15.0 | 34.0 | 0.00 | 0.00 | 0.00 | 52 | 1006.2 |
| 20260503185852 | 64 | 216 | 17.0 | 30.0 | 0.00 | 0.00 | 0.00 | 51 | 1006.3 |
| 20260503185348 | 65 | 235 | 12.0 | 28.0 | 0.00 | 0.00 | 0.00 | 53 | 1006.2 |
| 20260503184848 | 64 | 231 | 26.0 | 29.0 | 0.00 | 0.00 | 0.00 | 51 | 1006.2 |
| 20260503184344 | 64 | 234 | 17.0 | 27.0 | 0.00 | 0.00 | 0.00 | 51 | 1006.3 |
| 20260503183840 | 65 | 226 | 19.0 | 26.0 | 0.00 | 0.00 | 0.00 | 52 | 1006.4 |
| 20260503183338 | 64 | 225 | 19.0 | 29.0 | 0.00 | 0.00 | 0.00 | 50 | 1006.8 |
| 20260503182835 | 63 | 237 | 33.0 | 35.0 | 0.00 | 0.00 | 0.00 | 52 | 1006.8 |
| 20260503182334 | 62 | 223 | 22.0 | 33.0 | 0.00 | 0.00 | 0.00 | 53 | 1006.7 |
| 20260503181831 | 63 | 234 | 25.0 | 34.0 | 0.00 | 0.00 | 0.00 | 54 | 1006.8 |
| 20260503181328 | 62 | 240 | 17.0 | 27.0 | 0.00 | 0.00 | 0.00 | 57 | 1007.0 |
| 20260503180824 | 62 | 220 | 13.0 | 28.0 | 0.00 | 0.00 | 0.00 | 60 | 1007.3 |
| 20260503180322 | 62 | 237 | 13.0 | 25.0 | 0.00 | 0.00 | 0.00 | 61 | 1007.4 |
| 20260503175818 | 61 | 231 | 24.0 | 29.0 | 0.00 | 0.00 | 0.00 | 61 | 1007.5 |
| 20260503175316 | 61 | 222 | 17.0 | 30.0 | 0.00 | 0.00 | 0.00 | 60 | 1007.4 |
| 20260503174812 | 61 | 234 | 20.0 | 31.0 | 0.00 | 0.00 | 0.00 | 60 | 1007.5 |
| 20260503174310 | 60 | 231 | 21.0 | 32.0 | 0.00 | 0.00 | 0.00 | 62 | 1007.6 |
| 20260503173806 | 61 | 240 | 22.0 | 31.0 | 0.00 | 0.00 | 0.00 | 61 | 1007.7 |
| 20260503173301 | 61 | 242 | 17.0 | 33.0 | 0.00 | 0.00 | 0.00 | 62 | 1007.9 |
| 20260503172758 | 61 | 223 | 24.0 | 28.0 | 0.00 | 0.00 | 0.00 | 61 | 1007.7 |
| 20260503172256 | 60 | 221 | 18.0 | 30.0 | 0.00 | 0.00 | 0.00 | 61 | 1007.7 |
| 20260503171752 | 60 | 232 | 24.0 | 32.0 | 0.00 | 0.00 | 0.00 | 61 | 1007.8 |
| 20260503171249 | 60 | 239 | 23.0 | 34.0 | 0.00 | 0.00 | 0.00 | 62 | 1008.1 |
| 20260503170746 | 60 | 248 | 26.0 | 31.0 | 0.00 | 0.00 | 0.00 | 62 | 1007.9 |
| 20260503170243 | 59 | 225 | 25.0 | 35.0 | 0.00 | 0.00 | 0.00 | 62 | 1008.1 |
| 20260503160205 | 59 | 233 | 20.0 | 26.0 | 0.00 | 0.00 | 0.00 | 63 | 1008.7 |
| 20260503150635 | 58 | 240 | 22.0 | 28.0 | 0.00 | 0.00 | 0.00 | 61 | 1009.0 |
| 20260503150131 | 58 | 244 | 22.0 | 29.0 | 0.00 | 0.00 | 0.00 | 60 | 1009.2 |
| 20260503131025 | 51 | 229 | 14.0 | 20.0 | 0.00 | 0.00 | 0.00 | 66 | 1009.6 |
| 20260503130522 | 52 | 226 | 13.0 | 22.0 | 0.00 | 0.00 | 0.00 | 65 | 1009.9 |
| 20260503110407 | 50 | 244 | 7.0 | 12.0 | 0.00 | 0.00 | 0.00 | 63 | 1010.7 |
| 20260503090258 | 50 | 232 | 15.0 | 20.0 | 0.00 | 0.00 | 0.00 | 62 | 1011.5 |
| 20260503081225 | 51 | 233 | 16.0 | 17.0 | 0.00 | 0.00 | 0.00 | 60 | 1011.4 |
| 20260503080721 | 51 | 223 | 9.0 | 15.0 | 0.00 | 0.00 | 0.00 | 60 | 1011.6 |
| 20260503080218 | 51 | 241 | 13.0 | 16.0 | 0.00 | 0.00 | 0.00 | 61 | 1011.7 |
| 20260503072655 | 52 | 231 | 11.0 | 11.0 | 0.00 | 0.00 | 0.00 | 60 | 1011.8 |
| 20260503072151 | 52 | 230 | 9.0 | 12.0 | 0.00 | 0.00 | 0.00 | 59 | 1012.2 |
| 20260503071648 | 51 | 249 | 5.0 | 11.0 | 0.00 | 0.00 | 0.00 | 62 | 1012.0 |
| 20260503071145 | 51 | 247 | 5.0 | 10.0 | 0.00 | 0.00 | 0.00 | 63 | 1012.1 |
| 20260503070642 | 51 | 237 | 9.0 | 11.0 | 0.00 | 0.00 | 0.00 | 62 | 1012.0 |
| 20260503070140 | 51 | 225 | 8.0 | 11.0 | 0.00 | 0.00 | 0.00 | 63 | 1011.9 |
| 20260503060104 | 43 | 195 | 7.0 | 7.0 | 0.00 | 0.00 | 0.00 | 82 | 1012.6 |
| 20260503055055 | 41 | 180 | 4.0 | 6.0 | 0.00 | 0.00 | 0.00 | 85 | 1012.7 |
| 20260503054551 | 41 | 164 | 5.0 | 6.0 | 0.00 | 0.00 | 0.00 | 84 | 1012.8 |
| 20260503054049 | 41 | 157 | 5.0 | 5.0 | 0.00 | 0.00 | 0.00 | 84 | 1012.9 |
| 20260503053547 | 41 | 176 | 3.0 | 4.0 | 0.00 | 0.00 | 0.00 | 84 | 1012.8 |
| 20260503053044 | 41 | 155 | 4.0 | 5.0 | 0.00 | 0.00 | 0.00 | 84 | 1012.9 |
| 20260503052541 | 40 | 170 | 4.0 | 5.0 | 0.00 | 0.00 | 0.00 | 84 | 1012.9 |
| 20260503052037 | 40 | 164 | 5.0 | 6.0 | 0.00 | 0.00 | 0.00 | 83 | 1012.9 |
| 20260503051533 | 40 | 148 | 4.0 | 5.0 | 0.00 | 0.00 | 0.00 | 83 | 1013.0 |
| 20260503051031 | 40 | 156 | 6.0 | 6.0 | 0.00 | 0.00 | 0.00 | 83 | 1013.0 |
| 20260503050526 | 40 | 156 | 4.0 | 6.0 | 0.00 | 0.00 | 0.00 | 82 | 1013.2 |
| 20260503050024 | 40 | 157 | 5.0 | 7.0 | 0.00 | 0.00 | 0.00 | 82 | 1013.0 |
| 20260503045521 | 40 | 160 | 7.0 | 7.0 | 0.00 | 0.00 | 0.00 | 82 | 1013.2 |
| 20260503045018 | 40 | 173 | 5.0 | 7.0 | 0.00 | 0.00 | 0.00 | 82 | 1013.1 |
| 20260503044515 | 40 | 153 | 6.0 | 7.0 | 0.00 | 0.00 | 0.00 | 82 | 1013.1 |
| 20260503044012 | 40 | 173 | 6.0 | 6.0 | 0.00 | 0.00 | 0.00 | 82 | 1013.2 |
| 20260503043508 | 40 | 169 | 4.0 | 7.0 | 0.00 | 0.00 | 0.00 | 82 | 1013.3 |
| 20260503043005 | 40 | 166 | 5.0 | 8.0 | 0.00 | 0.00 | 0.00 | 81 | 1013.4 |
| 20260503042502 | 40 | 187 | 5.0 | 9.0 | 0.00 | 0.00 | 0.00 | 81 | 1013.6 |
| 20260503041958 | 40 | 187 | 6.0 | 8.0 | 0.00 | 0.00 | 0.00 | 81 | 1013.3 |
| 20260503041455 | 40 | 176 | 6.0 | 8.0 | 0.00 | 0.00 | 0.00 | 80 | 1013.7 |
| 20260503040953 | 40 | 152 | 6.0 | 9.0 | 0.00 | 0.00 | 0.00 | 80 | 1013.7 |
| 20260503040450 | 40 | 157 | 5.0 | 8.0 | 0.00 | 0.00 | 0.00 | 80 | 1013.5 |
| 20260503035947 | 40 | 157 | 5.0 | 9.0 | 0.00 | 0.00 | 0.00 | 79 | 1013.7 |
| 20260503035444 | 40 | 167 | 7.0 | 9.0 | 0.00 | 0.00 | 0.00 | 80 | 1013.8 |
| 20260503034942 | 40 | 156 | 7.0 | 10.0 | 0.00 | 0.00 | 0.00 | 79 | 1013.8 |
| 20260503034438 | 41 | 159 | 8.0 | 9.0 | 0.00 | 0.00 | 0.00 | 78 | 1013.7 |
| 20260503033935 | 41 | 152 | 8.0 | 11.0 | 0.00 | 0.00 | 0.00 | 78 | 1013.7 |
| 20260503033433 | 41 | 154 | 7.0 | 11.0 | 0.00 | 0.00 | 0.00 | 78 | 1013.8 |
| 20260503032931 | 41 | 155 | 5.0 | 12.0 | 0.00 | 0.00 | 0.00 | 77 | 1014.0 |
| 20260503032429 | 41 | 159 | 8.0 | 12.0 | 0.00 | 0.00 | 0.00 | 76 | 1013.9 |
| 20260503031926 | 41 | 196 | 7.0 | 12.0 | 0.00 | 0.00 | 0.00 | 75 | 1014.0 |
| 20260503031424 | 41 | 195 | 9.0 | 13.0 | 0.00 | 0.00 | 0.00 | 75 | 1014.1 |
| 20260503030920 | 41 | 174 | 9.0 | 13.0 | 0.00 | 0.00 | 0.00 | 74 | 1014.1 |
| 20260503030417 | 41 | 196 | 12.0 | 13.0 | 0.00 | 0.00 | 0.00 | 74 | 1014.4 |
| 20260503025914 | 42 | 176 | 11.0 | 13.0 | 0.00 | 0.00 | 0.00 | 73 | 1014.5 |
| 20260503025411 | 42 | 167 | 8.0 | 14.0 | 0.00 | 0.00 | 0.00 | 73 | 1014.3 |
| 20260503024908 | 42 | 155 | 8.0 | 16.0 | 0.00 | 0.00 | 0.00 | 72 | 1014.3 |
| 20260503024404 | 42 | 168 | 11.0 | 15.0 | 0.00 | 0.00 | 0.00 | 72 | 1014.4 |
| 20260503023901 | 42 | 174 | 8.0 | 14.0 | 0.00 | 0.00 | 0.00 | 72 | 1014.3 |
| 20260503023359 | 42 | 178 | 8.0 | 13.0 | 0.00 | 0.00 | 0.00 | 72 | 1014.5 |
| 20260503022855 | 43 | 169 | 12.0 | 16.0 | 0.00 | 0.00 | 0.00 | 71 | 1014.3 |
| 20260503022350 | 43 | 161 | 11.0 | 15.0 | 0.00 | 0.00 | 0.00 | 70 | 1014.3 |
| 20260503021846 | 43 | 156 | 8.0 | 11.0 | 0.00 | 0.00 | 0.00 | 70 | 1014.5 |
| 20260503021342 | 43 | 163 | 11.0 | 12.0 | 0.00 | 0.00 | 0.00 | 69 | 1014.6 |
| 20260503020840 | 43 | 158 | 6.0 | 9.0 | 0.00 | 0.00 | 0.00 | 69 | 1014.7 |
| 20260503020338 | 43 | 174 | 6.0 | 11.0 | 0.00 | 0.00 | 0.00 | 69 | 1014.4 |
| 20260503015834 | 43 | 155 | 9.0 | 12.0 | 0.00 | 0.00 | 0.00 | 68 | 1014.6 |
| 20260503015331 | 44 | 170 | 10.0 | 15.0 | 0.00 | 0.00 | 0.00 | 67 | 1014.4 |
| 20260503014827 | 44 | 168 | 12.0 | 15.0 | 0.00 | 0.00 | 0.00 | 66 | 1014.5 |
| 20260503014325 | 44 | 161 | 11.0 | 13.0 | 0.00 | 0.00 | 0.00 | 66 | 1014.4 |
| 20260503013822 | 44 | 155 | 8.0 | 15.0 | 0.00 | 0.00 | 0.00 | 65 | 1014.4 |
| 20260503013319 | 44 | 154 | 8.0 | 13.0 | 0.00 | 0.00 | 0.00 | 65 | 1014.4 |
| 20260503012816 | 45 | 165 | 7.0 | 13.0 | 0.00 | 0.00 | 0.00 | 65 | 1014.5 |
| 20260503012314 | 45 | 157 | 9.0 | 14.0 | 0.00 | 0.00 | 0.00 | 64 | 1014.4 |
| 20260503011810 | 45 | 163 | 10.0 | 14.0 | 0.00 | 0.00 | 0.00 | 63 | 1014.5 |
| 20260503011307 | 45 | 172 | 10.0 | 14.0 | 0.00 | 0.00 | 0.00 | 63 | 1014.3 |
| 20260503010803 | 46 | 161 | 9.0 | 17.0 | 0.00 | 0.00 | 0.00 | 63 | 1014.7 |
| 20260503010301 | 46 | 160 | 10.0 | 14.0 | 0.00 | 0.00 | 0.00 | 62 | 1014.5 |
| 20260503005758 | 46 | 166 | 11.0 | 14.0 | 0.00 | 0.00 | 0.00 | 63 | 1014.6 |
| 20260503005255 | 46 | 154 | 12.0 | 18.0 | 0.00 | 0.00 | 0.00 | 61 | 1014.6 |
| 20260503004751 | 47 | 162 | 13.0 | 15.0 | 0.00 | 0.00 | 0.00 | 61 | 1014.6 |
| 20260503004249 | 47 | 152 | 7.0 | 14.0 | 0.00 | 0.00 | 0.00 | 61 | 1014.5 |
| 20260503003746 | 47 | 170 | 9.0 | 20.0 | 0.00 | 0.00 | 0.00 | 60 | 1014.6 |
| 20260503003243 | 48 | 190 | 9.0 | 20.0 | 0.00 | 0.00 | 0.00 | 59 | 1014.7 |
| 20260503002740 | 48 | 193 | 12.0 | 20.0 | 0.00 | 0.00 | 0.00 | 57 | 1014.4 |
| 20260503002237 | 49 | 159 | 14.0 | 17.0 | 0.00 | 0.00 | 0.00 | 58 | 1014.6 |
| 20260503001733 | 49 | 185 | 9.0 | 18.0 | 0.00 | 0.00 | 0.00 | 59 | 1014.5 |
| 20260503001229 | 49 | 154 | 9.0 | 17.0 | 0.00 | 0.00 | 0.00 | 57 | 1014.6 |
| 20260503000728 | 50 | 153 | 16.0 | 22.0 | 0.00 | 0.00 | 0.00 | 56 | 1014.5 |
| 20260503000226 | 50 | 183 | 11.0 | 15.0 | 0.00 | 0.00 | 0.00 | 58 | 1014.8 |
| 20260502235721 | 50 | 188 | 9.0 | 16.0 | 0.00 | 0.00 | 0.00 | 57 | 1014.6 |
| 20260502235219 | 51 | 170 | 10.0 | 14.0 | 0.00 | 0.00 | 0.00 | 56 | 1014.7 |
| 20260502234715 | 51 | 155 | 11.0 | 17.0 | 0.00 | 0.00 | 0.00 | 56 | 1014.8 |
| 20260502234213 | 51 | 151 | 11.0 | 19.0 | 0.00 | 0.00 | 0.00 | 57 | 1014.7 |
| 20260502233708 | 52 | 180 | 16.0 | 19.0 | 0.00 | 0.00 | 0.00 | 55 | 1014.5 |
| 20260502233205 | 52 | 140 | 16.0 | 19.0 | 0.00 | 0.00 | 0.00 | 55 | 1014.7 |
| 20260502232701 | 53 | 167 | 11.0 | 20.0 | 0.00 | 0.00 | 0.00 | 56 | 1014.7 |
| 20260502232159 | 53 | 177 | 5.0 | 21.0 | 0.00 | 0.00 | 0.00 | 53 | 1014.7 |
| 20260502231655 | 56 | 167 | 15.0 | 16.0 | 0.00 | 0.00 | 0.00 | 48 | 1014.6 |
| 20260502231153 | 57 | 237 | 7.0 | 9.0 | 0.00 | 0.00 | 0.00 | 37 | 1014.5 |
| 20260502230651 | 57 | 218 | 5.0 | 7.0 | 0.00 | 0.00 | 0.00 | 37 | 1014.5 |
| 20260502230150 | 57 | 234 | 4.0 | 10.0 | 0.00 | 0.00 | 0.00 | 38 | 1014.7 |
| 20260502225644 | 58 | 239 | 5.0 | 7.0 | 0.00 | 0.00 | 0.00 | 37 | 1014.7 |